Regional Weather Roundup
Issued by NWS Albany, NY

Home | Current Version | Previous Version | Text Only | Print | Product List | Glossary On
Versions: 1 2 3 4 5 6 7 8 9 10 11 12 13 14 15 16 17 18 19 20 21 22 23 24 25 26 27 28 29 30 31 32 33 34 35 36 37 38 39 40 41 42 43 44 45 46 47 48 49 50
495
ASUS41 KALY 250610
RWRALY

NEW YORK STATE HOURLY WEATHER ROUNDUP
NATIONAL WEATHER SERVICE ALBANY NY
200 AM EDT TUE APR 25 2017

NOTE: "FAIR" INDICATES FEW OR NO CLOUDS BELOW 12,000 FEET WITH NO
SIGNIFICANT WEATHER AND/OR NO OBSTRUCTIONS TO VISIBILITY.

NYZ032-033-038>043-046>054-057>066-NYZ062>081-082-084-250700-
EAST


CITY           SKY/WX    TMP DP  RH WIND       PRES   REMARKS
ALBANY         CLOUDY    47  31  53 N6        30.17S
GLENS FALLS    MOCLDY    42  29  59 NE5       30.19S
POUGHKEEPSIE   CLOUDY    54  34  46 CALM      30.13S
NEWBURGH       MOCLDY    54  37  54 E9        30.13F
MONTGOMERY     CLOUDY    55  34  45 E5        30.12F
WHITE PLAINS   CLOUDY    50  45  83 E8        30.11F
ISLIP          LGT RAIN  52  50  93 E10       30.11F
NEW YORK CITY  CLOUDY    50  46  86 NE16      30.10F
CENTRAL PARK   CLOUDY    50  46  86 NE10      30.12F
$$

NYZ005>009-017-018-044>046-055-056-250700-
CENTRAL


CITY           SKY/WX    TMP DP  RH WIND       PRES   REMARKS
FULTON         CLOUDY    53  39  59 E3        30.07F
SYRACUSE       PTCLDY    50  40  68 E7        30.07F
ROME           CLOUDY    49  39  68 E7        30.12F
ELMIRA         CLOUDY    54  42  64 NE3       30.04F
BINGHAMTON     CLOUDY    54  32  43 SE10      30.06F
MONTICELLO     MOCLDY    52  32  46 SE12      30.12S
$$

NYZ026>034-041>043-087-250700-
NORTH


CITY           SKY/WX    TMP DP  RH WIND       PRES   REMARKS
WATERTOWN      PTCLDY    40  33  76 NE9       30.10F WCI  34
FORT DRUM      NOT AVBL
OGDENSBURG     FAIR      42  26  55 NE8       30.17S
MASSENA        PTCLDY    41  22  46 E16       30.21S
SARANAC LAKE   CLEAR     34  24  67 CALM      30.16S
PLATTSBURGH    PTCLDY    37  22  54 W7        30.22F WCI  32
$$

NYZ001>004-010>016-019>021-085-250700-
WEST


CITY           SKY/WX    TMP DP  RH WIND       PRES   REMARKS
NIAGARA FALLS  CLEAR     46  35  65 E9        30.02F
BUFFALO        CLOUDY    47  36  65 E8        30.02F
DUNKIRK        CLOUDY    48  43  82 NE6       29.99F
JAMESTOWN      CLOUDY    54  37  54 SE13G26   29.99F
WELLSVILLE     LGT RAIN  52  40  63 SE8       30.03F
ROCHESTER      CLOUDY    43  35  73 NE6       30.06F
PENN YAN       CLOUDY    48  41  76 CALM      30.05F
$$

             KEY
       WCI = WIND CHILL INDEX
       VSB = VISIBILITY
       HX  = HEAT INDEX
$$




USA.gov is the U.S. government's official web portal to all federal, state and local government web resources and services.